Location: Brachbach
(49.1847°N, 9.7240°E)
Time: 21:42:49
(UTC+00:00)

SO-50 - Visible Passes

Search period start: 10 March 2026 00:00
Search period end: 20 March 2026 00:00
Orbit: 568 x 673 km, 64.6° (Epoch: 10 March)

Date Brightness Start Highest point End Pass type
(mag) Time Alt. Az. Time Alt. Az. Time Alt. Az.
10 Mar ? 02:44:51 23° SE 02:44:51 23° SE 02:46:41 10° SE visible
10 Mar ? 04:22:08 20° SW 04:22:08 20° SW 04:24:58 10° SSW visible
10 Mar ? 18:30:03 10° SSW 18:34:28 45° ESE 18:39:01 10° NE visible
10 Mar ? 20:10:13 10° WSW 20:14:34 36° NW 20:16:57 22° NNE visible
10 Mar ? 21:53:07 10° NW 21:54:10 13° NW 21:54:10 13° NW visible
11 Mar ? 03:04:15 11° SSE 03:04:15 11° SSE 03:04:24 10° SSE visible
11 Mar ? 18:47:27 10° SW 18:52:07 83° SE 18:56:55 10° NE visible
11 Mar ? 20:28:45 10° W 20:32:39 25° NNW 20:35:18 16° NNE visible
11 Mar ? 22:12:00 10° NW 22:12:32 11° NNW 22:12:32 11° NNW visible
12 Mar ? 19:05:18 10° SW 19:09:55 57° NW 19:14:39 10° NE visible
12 Mar ? 20:47:33 10° WNW 20:50:52 19° NNW 20:53:20 13° NNE visible
13 Mar ? 19:23:32 10° WSW 19:27:52 35° NW 19:32:18 10° NNE visible
13 Mar ? 21:06:28 10° NW 21:09:11 15° NNW 21:11:06 12° N visible
14 Mar ? 18:00:43 10° SW 18:05:23 85° SE 18:10:12 10° NE visible
14 Mar ? 19:42:05 10° W 19:45:57 24° NNW 19:49:54 10° NNE visible
14 Mar ? 21:25:19 10° NW 21:27:35 13° N 21:28:40 12° N visible
15 Mar ? 18:18:34 10° WSW 18:23:11 56° NW 18:27:54 10° NE visible
15 Mar ? 20:00:51 10° WNW 20:04:10 18° NNW 20:07:30 10° NNE visible
15 Mar ? 21:43:50 10° NNW 21:45:59 13° N 21:46:07 13° N visible
16 Mar ? 18:36:48 10° WSW 18:41:07 35° NW 18:45:32 10° NNE visible
16 Mar ? 20:19:45 10° NW 20:22:28 15° NNW 20:25:12 10° NNE visible
16 Mar ? 22:01:53 10° NNW 22:03:29 13° N 22:03:29 13° N visible
17 Mar ? 18:55:21 10° W 18:59:12 24° NNW 19:03:08 10° NNE visible
17 Mar ? 20:38:34 10° NW 20:40:50 13° N 20:43:06 10° NNE visible
17 Mar ? 22:19:39 10° NNW 22:20:47 13° N 22:20:47 13° N visible
18 Mar ? 19:14:07 10° WNW 19:17:24 18° NNW 19:20:43 10° NNE visible
18 Mar ? 20:57:04 10° NNW 20:59:14 13° N 21:00:53 11° NNE visible
18 Mar ? 22:37:15 10° NNW 22:38:02 13° NNW 22:38:02 13° NNW visible
19 Mar ? 19:33:01 10° NW 19:35:41 15° NNW 19:38:24 10° NNE visible
19 Mar ? 21:15:06 10° NNW 21:17:37 14° N 21:18:06 14° NNE visible
19 Mar ? 22:54:50 10° NNW 22:55:15 12° NNW 22:55:15 12° NNW visible
